HZL01 YSBK-YSSY

Flight info

Callsign HZL01
Flight time 0h -8m
Altitude 3000
Route ANKUB
Aircraft C208/L-SDFGR/C

Departure

Time 2026-05-06 00:17
Airport Sydney Bankstown Airport (YSBK)

Arrival

Time 2026-05-06 00:08
Airport Sydney Kingsford Smith International Airport (YSSY)
Time Latitude Longitude Altitude Speed Heading
2026-05-06 00:08 -33.92193 150.98247 25 ft 0 kts 323°
2026-05-06 00:09 -33.92186 150.98244 25 ft 3 kts 346°
2026-05-06 00:10 -33.92171 150.98267 26 ft 9 kts 79°
2026-05-06 00:10 -33.92194 150.98410 25 ft 21 kts 109°
2026-05-06 00:10 -33.92266 150.98576 27 ft 23 kts 123°
2026-05-06 00:10 -33.92357 150.98742 24 ft 24 kts 125°
2026-05-06 00:11 -33.92450 150.98908 24 ft 24 kts 123°
2026-05-06 00:11 -33.92542 150.99071 25 ft 23 kts 123°
2026-05-06 00:11 -33.92632 150.99230 27 ft 23 kts 125°
2026-05-06 00:11 -33.92719 150.99383 29 ft 15 kts 126°
2026-05-06 00:12 -33.92724 150.99390 29 ft 0 kts 126°
2026-05-06 00:12 -33.92731 150.99405 29 ft 12 kts 120°
2026-05-06 00:12 -33.92786 150.99512 30 ft 16 kts 124°
2026-05-06 00:13 -33.92832 150.99634 30 ft 16 kts 101°
2026-05-06 00:13 -33.92849 150.99760 34 ft 8 kts 83°
2026-05-06 00:13 -33.92796 150.99816 37 ft 13 kts 35°
2026-05-06 00:13 -33.92722 150.99871 40 ft 13 kts 30°
2026-05-06 00:14 -33.92643 150.99909 42 ft 12 kts 343°
2026-05-06 00:14 -33.92592 150.99829 39 ft 14 kts 303°
2026-05-06 00:14 -33.92540 150.99732 38 ft 14 kts 303°
2026-05-06 00:14 -33.92534 150.99673 38 ft 9 kts 219°
2026-05-06 00:15 -33.92591 150.99642 39 ft 11 kts 179°
2026-05-06 00:15 -33.92662 150.99616 32 ft 7 kts 285°
2026-05-06 00:15 -33.92632 150.99559 32 ft 10 kts 303°
2026-05-06 00:15 -33.92434 150.99220 48 ft 81 kts 306°
2026-05-06 00:16 -33.92049 150.98576 146 ft 111 kts 301°
2026-05-06 00:16 -33.91733 150.97701 396 ft 109 kts 272°
2026-05-06 00:16 -33.91732 150.96818 479 ft 112 kts 270°
2026-05-06 00:16 -33.91795 150.95858 586 ft 102 kts 258°
2026-05-06 00:17 -33.92329 150.95428 777 ft 113 kts 181°
2026-05-06 00:17 -33.93152 150.95633 738 ft 125 kts 162°
2026-05-06 00:17 -33.93980 150.96003 823 ft 122 kts 160°
2026-05-06 00:17 -33.94753 150.96381 956 ft 124 kts 158°
2026-05-06 00:18 -33.95518 150.96836 1138 ft 121 kts 153°
2026-05-06 00:18 -33.96240 150.97277 1359 ft 120 kts 153°
2026-05-06 00:18 -33.97057 150.97840 1328 ft 138 kts 149°
2026-05-06 00:18 -33.97915 150.98372 1145 ft 150 kts 158°
2026-05-06 00:19 -33.98538 150.99151 1265 ft 134 kts 82°
2026-05-06 00:19 -33.98322 151.00284 1202 ft 140 kts 77°
2026-05-06 00:19 -33.98089 151.01425 1206 ft 141 kts 73°
2026-05-06 00:19 -33.97826 151.02504 1361 ft 131 kts 74°
2026-05-06 00:20 -33.97599 151.03532 1467 ft 130 kts 76°
2026-05-06 00:20 -33.97336 151.04644 1308 ft 145 kts 73°
2026-05-06 00:20 -33.97044 151.05837 1269 ft 147 kts 75°
2026-05-06 00:20 -33.96793 151.07036 1243 ft 147 kts 79°
2026-05-06 00:21 -33.96548 151.08207 1284 ft 144 kts 72°
2026-05-06 00:21 -33.96217 151.09371 1163 ft 151 kts 71°
2026-05-06 00:21 -33.95880 151.10540 1098 ft 150 kts 74°
2026-05-06 00:21 -33.95603 151.11685 1211 ft 127 kts 76°
2026-05-06 00:22 -33.95341 151.12602 1159 ft 107 kts 71°
2026-05-06 00:22 -33.95265 151.12842 1153 ft 102 kts 71°
2026-05-06 00:27 -33.95187 151.13090 1174 ft 96 kts 71°
2026-05-06 00:27 -33.95024 151.13844 1141 ft 94 kts 92°
2026-05-06 00:27 -33.95048 151.14697 1144 ft 101 kts 100°
2026-05-06 00:28 -33.95105 151.15464 1367 ft 90 kts 90°
2026-05-06 00:28 -33.95070 151.16273 1403 ft 101 kts 86°
2026-05-06 00:28 -33.94945 151.17119 1533 ft 101 kts 81°
2026-05-06 00:28 -33.94839 151.17944 1669 ft 103 kts 87°
2026-05-06 00:29 -33.94804 151.18790 1802 ft 105 kts 90°
2026-05-06 00:29 -33.94852 151.19707 1777 ft 111 kts 100°
2026-05-06 00:29 -33.95002 151.20590 1926 ft 104 kts 104°
2026-05-06 00:29 -33.95066 151.21477 1879 ft 113 kts 90°
2026-05-06 00:30 -33.94983 151.22388 1988 ft 106 kts 88°
2026-05-06 00:30 -33.94999 151.23299 1985 ft 111 kts 103°
2026-05-06 00:30 -33.95082 151.24209 2066 ft 108 kts 89°
2026-05-06 00:30 -33.94921 151.25103 2116 ft 111 kts 71°
2026-05-06 00:31 -33.94547 151.25892 2140 ft 106 kts 49°
2026-05-06 00:31 -33.93859 151.26161 1878 ft 111 kts 340°
2026-05-06 00:31 -33.93402 151.25411 1372 ft 122 kts 293°
2026-05-06 00:31 -33.93151 151.24471 977 ft 116 kts 277°
2026-05-06 00:32 -33.93104 151.23814 762 ft 110 kts 268°
2026-05-06 00:32 -33.93139 151.23258 552 ft 106 kts 267°
2026-05-06 00:33 -33.93155 151.22363 656 ft 108 kts 268°
2026-05-06 00:33 -33.93239 151.21397 628 ft 120 kts 261°
2026-05-06 00:33 -33.93408 151.20483 502 ft 92 kts 257°
2026-05-06 00:33 -33.93602 151.19874 303 ft 75 kts 260°
2026-05-06 00:34 -33.93682 151.19312 104 ft 68 kts 261°
2026-05-06 00:34 -33.93781 151.18812 27 ft 49 kts 261°
2026-05-06 00:34 -33.93838 151.18576 28 ft 23 kts 250°
2026-05-06 00:34 -33.93880 151.18417 29 ft 19 kts 252°
2026-05-06 00:35 -33.93900 151.18289 27 ft 14 kts 295°
2026-05-06 00:35 -33.93816 151.18256 27 ft 12 kts 351°
2026-05-06 00:35 -33.93795 151.18250 27 ft 0 kts 343°
2026-05-06 00:35 -33.93779 151.18243 28 ft 14 kts 339°
2026-05-06 00:36 -33.93739 151.18184 30 ft 8 kts 248°
2026-05-06 00:36 -33.93762 151.18108 29 ft 11 kts 255°
2026-05-06 00:36 -33.93783 151.18017 29 ft 12 kts 253°
2026-05-06 00:36 -33.93810 151.17898 27 ft 16 kts 254°
2026-05-06 00:37 -33.93842 151.17764 19 ft 17 kts 253°
2026-05-06 00:37 -33.93873 151.17634 18 ft 15 kts 255°
2026-05-06 00:37 -33.93893 151.17551 18 ft 0 kts 254°
2026-05-06 00:37 -33.93902 151.17516 18 ft 6 kts 255°
2026-05-06 00:38 -33.93903 151.17515 18 ft 0 kts 256°
2026-05-06 00:38 -33.93903 151.17514 18 ft 1 kts 256°
2026-05-06 00:38 -33.93940 151.17347 17 ft 30 kts 259°
2026-05-06 00:38 -33.93900 151.17180 16 ft 16 kts 354°
2026-05-06 00:39 -33.93792 151.17169 15 ft 15 kts 351°
2026-05-06 00:39 -33.93715 151.17127 19 ft 9 kts 287°
2026-05-06 00:39 -33.93753 151.17042 20 ft 14 kts 190°
2026-05-06 00:39 -33.93850 151.17062 20 ft 14 kts 169°
2026-05-06 00:40 -33.93907 151.17080 20 ft 0 kts 161°
2026-05-06 00:40 -33.93910 151.17081 20 ft 4 kts 161°
2026-05-06 00:40 -33.93961 151.17101 18 ft 12 kts 159°
2026-05-06 00:40 -33.93990 151.17150 19 ft 15 kts 82°
2026-05-06 00:41 -33.93956 151.17288 17 ft 0 kts 75°
2026-05-06 00:42 -33.93925 151.17419 17 ft 35 kts 73°
2026-05-06 00:42 -33.93859 151.17717 18 ft 21 kts 88°
2026-05-06 00:42 -33.93951 151.17798 22 ft 19 kts 172°
2026-05-06 00:42 -33.94024 151.17867 21 ft 17 kts 75°
2026-05-06 00:43 -33.93956 151.18151 26 ft 47 kts 74°
2026-05-06 00:43 -33.93863 151.18571 28 ft 41 kts 76°
2026-05-06 00:43 -33.93797 151.18861 25 ft 33 kts 77°
2026-05-06 00:43 -33.93844 151.19031 26 ft 14 kts 140°
2026-05-06 00:44 -33.93966 151.19140 27 ft 15 kts 151°
2026-05-06 00:44 -33.93962 151.19172 27 ft 1 kts
2026-05-06 00:44 -33.93957 151.19169 26 ft 0 kts 324°